Location: Burzi?i
(45.0869°N, 16.0577°E)
Time: 04:22:28
(UTC+00:00)

Ariane Rocket - Pass Details

Date: 29 October 2020
Orbit: 759 x 771 km, 98.7° (Epoch: 01 December)

Event Time Altitude Azimuth Distance (km) Brightness Sun altitude
Exits shadow 17:53:39 23° 25° (NNE) 1,622 4.5 -22.8°
Drops below altitude 10° 17:55:57 10° 5° (N) 2,323 5.5 -23.2°
Sets 17:58:29 0° 355° (N) 3,253 6.4 -23.6°
